Weather History for Columbus, OH

Change the Weather History Date:

Sunday, December 9, 2012

  Actual Average Record
Temperature  
Mean Temperature 50 °F 35 °F  
Max Temperature 58 °F 42 °F 66 °F (1952)
Min Temperature 41 °F 29 °F -8 °F (1917)
Degree Days  
Heating Degree Days 15 30  
Month to date heating degree days 149 255  
Since 1 July heating degree days 1266 1269  
Cooling Degree Days 0 0  
Month to date cooling degree days 0 0  
Year to date cooling degree days 1439 1024  
Moisture  
Dew Point 46 °F    
Average Humidity 88    
Maximum Humidity 100    
Minimum Humidity 76    
Precipitation  
Precipitation 0.64 in 0.11 in 1.42 in (1901)
Month to date precipitation 2.61 0.89  
Year to date precipitation 34.18 37.23  
Snow  
Snow 0.00 in 0.10 in 1.60 in (1956)
Month to date snowfall 0.0 1.0  
Since 1 July snowfall 0.8 2.1  
Snow Depth 0.00 in    
Sea Level Pressure  
Sea Level Pressure 29.90 in    
Wind  
Wind Speed 9 mph (SE)    
Max Wind Speed 16 mph    
Max Gust Speed 22 mph    
Visibility 8 miles    
Events Rain    
T = Trace of Precipitation, MM = Missing Value Source: NWS Daily Summary

Daily Weather History Graph

Daily Weather History Graph

Search for Another Location

Airport:

Trip Planner

Search our weather history database for the weather conditions in past years. The results will help you decide how hot, cold, wet, or windy it might be!

Date:

Astronomy

Dec. 09, 2012 Rise Set
Actual Time 7:41 AM EST 5:06 PM EST
Civil Twilight 7:11 AM EST 5:36 PM EST
Nautical Twilight 6:37 AM EST 6:10 PM EST
Astronomical Twilight 6:04 AM EST 6:43 PM EST
Moon 3:13 AM EST (12/9) 2:12 PM EST (12/9)
Length of Visible Light 10h 24m
Length of Day
9h 24m
Waning Crescent, 19% of the Moon is Illuminated
Dec 9
Waning Crescent
Dec 13
New
Dec 20
First Quarter
Dec 28
Full
Jan 4
Last Quarter

Hourly Weather History & Observations

Time (EST) Temp. Windchill Dew Point Humidity Pressure Visibility Wind Dir Wind Speed Gust Speed Precip Events Conditions
12:11 AM 42.8 °F 39.3 °F 39.2 °F 87% 30.07 in 10.0 mi NE 5.8 mph - N/A   Overcast
12:51 AM 43.0 °F 39.5 °F 39.0 °F 86% 30.08 in 10.0 mi NE 5.8 mph 16.1 mph N/A   Overcast
1:51 AM 42.8 °F 39.3 °F 39.2 °F 87% 30.08 in 10.0 mi NNE 5.8 mph - N/A   Overcast
2:51 AM 43.0 °F 38.2 °F 37.9 °F 82% 30.08 in 10.0 mi ENE 8.1 mph - N/A   Overcast
3:51 AM 43.0 °F 38.8 °F 36.0 °F 76% 30.08 in 10.0 mi NE 6.9 mph - N/A   Overcast
4:51 AM 42.1 °F 37.1 °F 36.0 °F 79% 30.07 in 10.0 mi East 8.1 mph - N/A   Overcast
5:51 AM 42.1 °F 36.6 °F 35.1 °F 76% 30.08 in 10.0 mi NE 9.2 mph - N/A   Overcast
6:51 AM 41.0 °F 36.4 °F 35.1 °F 79% 30.08 in 10.0 mi ENE 6.9 mph - N/A   Overcast
7:51 AM 41.0 °F 34.7 °F 35.1 °F 79% 30.06 in 10.0 mi East 10.4 mph - N/A   Overcast
8:51 AM 41.0 °F 33.5 °F 36.0 °F 82% 30.05 in 10.0 mi East 13.8 mph 17.3 mph N/A   Overcast
9:51 AM 42.1 °F 35.7 °F 37.0 °F 82% 30.04 in 10.0 mi ESE 11.5 mph - N/A   Overcast
10:51 AM 44.1 °F 38.6 °F 39.0 °F 82% 30.01 in 10.0 mi ESE 10.4 mph - N/A   Overcast
11:18 AM 44.6 °F 40.2 °F 39.2 °F 81% 29.98 in 10.0 mi ESE 8.1 mph 18.4 mph N/A   Overcast
11:51 AM 45.0 °F 40.6 °F 39.9 °F 82% 29.98 in 10.0 mi ESE 8.1 mph - N/A   Overcast
12:51 PM 46.0 °F 41.0 °F 43.0 °F 89% 29.93 in 7.0 mi ESE 10.4 mph - 0.01 in Rain Light Rain
1:51 PM 46.9 °F - 45.0 °F 93% 29.90 in 7.0 mi ESE 9.2 mph - 0.02 in Rain Light Rain
1:59 PM 46.4 °F 42.4 °F 44.6 °F 93% 29.88 in 8.0 mi SE 8.1 mph - 0.00 in Rain Light Rain
2:51 PM 48.9 °F - 46.9 °F 93% 29.86 in 7.0 mi SE 10.4 mph - 0.00 in   Overcast
3:51 PM 50.0 °F - 48.2 °F 94% 29.85 in 7.0 mi SE 9.2 mph - N/A   Overcast
4:51 PM 51.8 °F - 50.0 °F 94% 29.83 in 7.0 mi SSE 6.9 mph - N/A   Overcast
5:51 PM 53.1 °F - 51.1 °F 93% 29.83 in 8.0 mi South 6.9 mph - N/A   Overcast
6:51 PM 55.0 °F - 53.1 °F 93% 29.81 in 4.0 mi SSE 12.7 mph - 0.00 in Rain Rain
7:11 PM 55.4 °F - 53.6 °F 94% 29.80 in 9.0 mi South 12.7 mph - 0.04 in Rain Light Rain
7:51 PM 55.9 °F - 55.0 °F 97% 29.79 in 8.0 mi South 11.5 mph - 0.09 in Rain Light Rain
8:22 PM 57.2 °F - 55.4 °F 94% 29.78 in 10.0 mi South 11.5 mph - 0.01 in   Overcast
8:51 PM 57.0 °F - 55.0 °F 93% 29.77 in 10.0 mi South 13.8 mph - 0.01 in   Overcast
9:37 PM 57.2 °F - 55.4 °F 94% 29.74 in 10.0 mi South 10.4 mph - 0.00 in   Overcast
9:51 PM 57.9 °F - 55.9 °F 93% 29.73 in 10.0 mi South 10.4 mph - 0.00 in   Overcast
10:14 PM 57.2 °F - 55.4 °F 94% 29.71 in 7.0 mi South 11.5 mph - 0.01 in Rain Light Rain
10:51 PM 57.9 °F - 57.0 °F 97% 29.70 in 3.0 mi South 8.1 mph - 0.08 in Rain Heavy Rain
11:07 PM 57.2 °F - 57.2 °F 100% 29.68 in 3.0 mi West 9.2 mph 17.3 mph 0.14 in Rain Heavy Rain
11:26 PM 57.2 °F - 55.4 °F 94% 29.70 in 7.0 mi WSW 10.4 mph - 0.33 in Rain Rain
11:39 PM 57.2 °F - 55.4 °F 94% 29.70 in 7.0 mi WSW 8.1 mph - 0.41 in Rain Rain
11:51 PM 57.2 °F - 55.4 °F 94% 29.69 in 9.0 mi SW 4.6 mph - N/A Rain Light Rain